Weather History for Ukiah, CA

Change the Weather History Date:

Thursday, November 24, 2011

  Actual Average Record
Temperature  
Mean Temperature 50 °F 48 °F  
Max Temperature 55 °F 59 °F 79 °F (1959)
Min Temperature 45 °F 38 °F 22 °F (1906)
Degree Days  
Heating Degree Days 15 17  
Month to date heating degree days 380 318  
Since 1 July heating degree days 495 518  
Cooling Degree Days 0 0  
Month to date cooling degree days 0 0  
Year to date cooling degree days 895 835  
Moisture  
Dew Point 47 °F    
Average Humidity 80    
Maximum Humidity 100    
Minimum Humidity 59    
Precipitation  
Precipitation 0.26 in 0.16 in 1.97 in (1926)
Month to date precipitation 2.59 3.25  
Year to date precipitation 28.24 29.38  
Since 1 July precipitation 6.20 6.00  
Snow  
Snow 0.00 in - - ()
Month to date snowfall 0.0  
Since 1 July snowfall 0.0  
Since 1 September snowfall 0.0  
Snow Depth 0.00 in    
Sea Level Pressure  
Sea Level Pressure 30.01 in    
Wind  
Wind Speed 2 mph (NNW)    
Max Wind Speed 10 mph    
Max Gust Speed -    
Visibility 8 miles    
Events Rain    
T = Trace of Precipitation, MM = Missing Value Source: NWS Daily Summary

Daily Weather History Graph

Daily Weather History Graph

Search for Another Location

Airport:

Trip Planner

Search our weather history database for the weather conditions in past years. The results will help you decide how hot, cold, wet, or windy it might be!

Date:

Astronomy

Nov. 24, 2011 Rise Set
Actual Time 7:05 AM PST 4:52 PM PST
Civil Twilight 6:36 AM PST 5:22 PM PST
Nautical Twilight 6:03 AM PST 5:54 PM PST
Astronomical Twilight 5:31 AM PST 6:26 PM PST
Moon 6:30 AM PST (11/24) 4:29 PM PST (11/24)
Length of Visible Light 10h 45m
Length of Day
9h 47m
Waning Crescent, 0% of the Moon is Illuminated
Nov 24
Waning Crescent
Nov 24
New
Dec 2
First Quarter
Dec 10
Full
Dec 17
Last Quarter

Hourly Weather History & Observations

Time (PST) Temp. Dew Point Humidity Pressure Visibility Wind Dir Wind Speed Gust Speed Precip Events Conditions
12:56 AM 50.0 °F 50.0 °F 100% 29.85 in 7.0 mi Calm Calm - 0.09 in Rain Rain
1:32 AM 50.0 °F 50.0 °F 100% 29.85 in 8.0 mi Calm Calm - 0.07 in Rain Light Rain
1:44 AM 51.8 °F 50.0 °F 94% 29.85 in 10.0 mi Calm Calm - 0.07 in Rain Light Rain
1:56 AM 51.1 °F 50.0 °F 96% 29.85 in 10.0 mi Calm Calm - 0.08 in Rain Light Rain
2:15 AM 51.8 °F 50.0 °F 94% 29.86 in 10.0 mi Calm Calm - 0.01 in Rain Light Rain
2:56 AM 51.8 °F 50.0 °F 94% 29.87 in 10.0 mi NNW 3.5 mph - N/A   Overcast
3:47 AM 51.8 °F 50.0 °F 94% 29.88 in 2.5 mi Calm Calm - 0.03 in Rain Light Rain
3:56 AM 51.1 °F 50.0 °F 96% 29.87 in 2.5 mi Calm Calm - 0.04 in Rain Light Rain
4:03 AM 51.8 °F 50.0 °F 94% 29.88 in 3.0 mi Calm Calm - 0.00 in Rain Light Rain
4:56 AM 51.1 °F 50.0 °F 96% 29.89 in 3.0 mi Calm Calm - 0.02 in Rain Light Rain
5:16 AM 51.8 °F 50.0 °F 94% 29.90 in 3.0 mi NW 3.5 mph - 0.01 in Rain Light Rain
5:39 AM 51.8 °F 50.0 °F 94% 29.91 in 10.0 mi Calm Calm - 0.01 in   Overcast
5:56 AM 50.0 °F 50.0 °F 100% 29.91 in 10.0 mi Calm Calm - 0.01 in   Overcast
6:14 AM 50.0 °F 50.0 °F 100% 29.92 in 10.0 mi Calm Calm - N/A   Overcast
6:36 AM 50.0 °F 50.0 °F 100% 29.92 in 10.0 mi Calm Calm - N/A   Overcast
6:56 AM 50.0 °F 48.9 °F 96% 29.93 in 10.0 mi Calm Calm - N/A   Overcast
7:56 AM 48.2 °F 48.2 °F 100% 29.96 in 5.0 mi Calm Calm - N/A   Scattered Clouds
8:03 AM 48.2 °F 48.2 °F 100% 29.96 in 2.0 mi Calm Calm - N/A   Mostly Cloudy
8:09 AM 48.2 °F 48.2 °F 100% 29.96 in 3.0 mi Calm Calm - N/A   Mostly Cloudy
8:56 AM 51.1 °F 50.0 °F 96% 29.99 in 10.0 mi Calm Calm - N/A   Mostly Cloudy
9:56 AM 52.0 °F 48.0 °F 86% 30.02 in 10.0 mi Calm Calm - N/A   Overcast
10:24 AM 53.6 °F 48.2 °F 82% 30.04 in 10.0 mi North 4.6 mph - N/A   Overcast
10:56 AM 53.1 °F 46.9 °F 80% 30.04 in 10.0 mi NNW 9.2 mph - N/A   Overcast
11:10 AM 53.6 °F 46.4 °F 77% 30.05 in 10.0 mi North 8.1 mph - N/A   Overcast
11:53 AM 53.6 °F 46.4 °F 77% 30.06 in 10.0 mi NNW 9.2 mph - N/A   Overcast
11:56 AM 53.1 °F 45.0 °F 74% 30.05 in 10.0 mi NW 10.4 mph - N/A   Overcast
12:56 PM 55.0 °F 43.0 °F 64% 30.06 in 10.0 mi NNW 5.8 mph - N/A   Overcast
1:56 PM 54.0 °F 41.0 °F 62% 30.07 in 10.0 mi Variable 4.6 mph - N/A   Scattered Clouds
2:56 PM 55.0 °F 41.0 °F 59% 30.08 in 10.0 mi NNW 4.6 mph - N/A   Clear
3:56 PM 51.8 °F 41.0 °F 67% 30.10 in 10.0 mi West 4.6 mph - N/A   Clear
4:56 PM 48.0 °F 42.1 °F 80% 30.12 in 10.0 mi Calm Calm - N/A   Partly Cloudy
5:56 PM 46.0 °F 43.0 °F 89% 30.15 in 10.0 mi Calm Calm - N/A   Scattered Clouds
6:56 PM 46.9 °F 42.1 °F 83% 30.17 in 10.0 mi Calm Calm - N/A   Overcast
7:56 PM 45.0 °F 42.1 °F 90% 30.18 in 10.0 mi Calm Calm - N/A   Mostly Cloudy
8:56 PM 46.0 °F 43.0 °F 89% 30.21 in 10.0 mi Calm Calm - N/A   Overcast
9:56 PM 46.4 °F 44.6 °F 93% 30.23 in 10.0 mi Calm Calm - N/A   Overcast
10:12 PM 46.4 °F 44.6 °F 93% 30.23 in 10.0 mi Calm Calm - 0.01 in   Overcast
10:56 PM 46.0 °F 44.1 °F 93% 30.22 in 10.0 mi Calm Calm - 0.01 in   Overcast
11:56 PM 46.0 °F 43.0 °F 89% 30.22 in 10.0 mi Calm Calm - N/A   Overcast